EW8771 Weather Reports


time (UTC)temp
C
wind
direction
speed
KPH
gust
KPH
rain 1hr
cm
rain 24hr
cm
rain mn
cm
humidity
%
barometer
mb
20191021034605 10 212 3.2 4.8 0.00 0.00 0.00 82 1014.4
20191021034105 11 212 3.2 8.0 0.00 0.00 0.00 82 1014.3
20191021033605 11 212 3.2 8.0 0.00 0.00 0.00 82 1014.2
20191021033105 11 211 3.2 8.0 0.00 0.00 0.00 82 1014.2
20191021032604 11 211 3.2 8.0 0.00 0.00 0.00 82 1014.1
20191021032104 11 211 3.2 4.8 0.00 0.00 0.00 82 1014.1
20191021031604 11 211 3.2 4.8 0.00 0.00 0.00 83 1014.0
20191021031105 11 211 0.0 1.6 0.00 0.00 0.00 83 1013.9
20191021030604 11 211 1.6 4.8 0.00 0.00 0.00 83 1014.0
20191021030106 11 211 1.6 4.8 0.00 0.00 0.00 84 1014.1
20191021025604 10 211 3.2 4.8 0.00 0.00 0.00 84 1014.1
20191021025105 11 211 3.2 4.8 0.00 0.00 0.00 84 1013.9
20191021024604 11 211 3.2 4.8 0.00 0.00 0.00 84 1014.0
20191021024105 11 211 1.6 4.8 0.00 0.00 0.00 83 1014.0
20191021023604 11 211 3.2 4.8 0.00 0.00 0.00 83 1013.9
20191021023104 11 211 3.2 4.8 0.00 0.00 0.00 84 1013.9
20191021022604 11 211 1.6 8.0 0.00 0.00 0.00 85 1014.0
20191021022104 10 163 0.0 1.6 0.00 0.00 0.00 86 1014.0
20191021021605 10 163 0.0 0.0 0.00 0.00 0.00 86 1013.9
20191021021105 10 163 0.0 0.0 0.00 0.00 0.00 86 1013.8
20191021020605 10 163 0.0 1.6 0.00 0.00 0.00 86 1013.8
20191021020105 10 163 0.0 0.0 0.00 0.00 0.00 86 1013.7
20191021015604 10 163 0.0 0.0 0.00 0.00 0.00 84 1013.7
20191021015104 10 163 0.0 0.0 0.00 0.00 0.00 84 1013.5
20191021014604 10 163 0.0 1.6 0.00 0.00 0.00 83 1013.5
20191021014105 10 163 0.0 1.6 0.00 0.00 0.00 85 1013.4
20191021013604 10 163 0.0 1.6 0.00 0.00 0.00 84 1013.5
20191021013104 10 163 0.0 1.6 0.00 0.00 0.00 83 1013.4
20191021012605 11 164 0.0 1.6 0.00 0.00 0.00 83 1013.4
20191021012104 11 163 0.0 3.2 0.00 0.00 0.00 83 1013.3
20191021011605 11 163 0.0 0.0 0.00 0.00 0.00 82 1013.2
20191021011104 11 163 0.0 3.2 0.00 0.00 0.00 81 1013.1
20191021010604 11 163 0.0 8.0 0.00 0.00 0.00 81 1013.1
20191021010105 11 163 1.6 9.7 0.00 0.00 0.00 82 1013.0
20191021005605 11 166 1.6 8.0 0.00 0.00 0.00 83 1012.9
20191021005104 11 167 3.2 9.7 0.00 0.00 0.00 83 1012.9
20191021004604 11 191 0.0 4.8 0.00 0.00 0.00 84 1012.7
20191021004104 11 164 3.2 9.7 0.00 0.00 0.00 84 1012.7
20191021003604 11 167 1.6 9.7 0.00 0.00 0.00 84 1012.8
20191021003105 11 197 1.6 4.8 0.00 0.00 0.00 84 1012.7
20191021002604 11 197 1.6 3.2 0.00 0.00 0.00 84 1012.7
20191021002104 11 197 1.6 4.8 0.00 0.00 0.00 85 1012.8
20191021001604 10 201 1.6 4.8 0.00 0.00 0.00 85 1012.8
20191021001104 11 201 0.0 3.2 0.00 0.00 0.00 85 1012.9
20191021000604 11 201 0.0 0.0 0.00 0.00 0.00 85 1013.0
20191021000105 11 201 0.0 4.8 0.00 0.00 0.00 86 1012.9
20191020235605 10 201 1.6 4.8 0.00 0.00 0.00 86 1012.9
20191020235104 10 201 0.0 3.2 0.00 0.00 0.00 86 1012.9
20191020234605 10 201 0.0 3.2 0.00 0.00 0.00 87 1012.9
20191020234105 10 200 0.0 0.0 0.00 0.00 0.00 87 1013.1
20191020233604 11 201 0.0 0.0 0.00 0.00 0.00 86 1013.1
20191020233104 11 201 1.6 9.7 0.00 0.00 0.00 87 1013.1
20191020232604 10 194 3.2 8.0 0.00 0.00 0.00 89 1013.0
20191020232104 10 171 1.6 9.7 0.00 0.00 0.00 89 1013.0
20191020231604 10 170 3.2 8.0 0.00 0.00 0.00 90 1013.0
20191020231104 10 170 1.6 3.2 0.00 0.00 0.00 90 1013.0
20191020230605 10 170 0.0 8.0 0.00 0.00 0.00 90 1013.0
20191020230105 10 171 1.6 8.0 0.00 0.00 0.00 90 1012.9
20191020225604 10 170 0.0 1.6 0.00 0.00 0.00 90 1012.9
20191020225104 10 170 1.6 3.2 0.00 0.00 0.00 90 1012.9
20191020224605 10 170 0.0 9.7 0.00 0.00 0.00 90 1013.0
20191020224104 10 171 1.6 3.2 0.00 0.00 0.00 90 1013.0
20191020223604 10 171 0.0 1.6 0.00 0.00 0.00 89 1013.0
20191020223105 10 171 1.6 8.0 0.00 0.00 0.00 89 1012.9
20191020222605 10 171 1.6 8.0 0.00 0.00 0.00 89 1013.0
20191020222105 10 171 0.0 9.7 0.00 0.00 0.00 89 1013.0
20191020221605 10 171 0.0 9.7 0.00 0.00 0.00 88 1012.9
20191020221107 11 171 1.6 9.7 0.00 0.00 0.00 88 1012.8
20191020220605 11 165 3.2 19.3 0.00 0.00 0.00 88 1012.9
20191020220106 11 171 6.4 12.9 0.00 0.00 0.00 88 1012.8
20191020215605 11 165 6.4 16.1 0.00 0.00 0.00 89 1012.8
20191020215104 11 165 8.0 19.3 0.00 0.00 0.00 90 1012.7
20191020214604 10 167 9.7 16.1 0.00 0.00 0.00 91 1012.8
20191020214104 10 165 4.8 14.5 0.00 0.00 0.00 92 1012.7
20191020213605 10 190 1.6 4.8 0.00 0.00 0.00 92 1012.5
20191020213104 10 194 1.6 8.0 0.00 0.00 0.00 92 1012.5
20191020212605 10 174 1.6 4.8 0.00 0.00 0.00 92 1012.4
20191020212105 10 197 1.6 4.8 0.00 0.00 0.00 92 1012.2
20191020211605 10 191 1.6 4.8 0.00 0.00 0.00 92 1012.3
20191020211104 10 187 1.6 8.0 0.00 0.00 0.00 92 1012.3
20191020210605 10 198 3.2 9.7 0.00 0.00 0.00 92 1012.2
20191020210106 10 173 0.0 9.7 0.00 0.00 0.00 92 1012.2
20191020205605 10 174 1.6 9.7 0.00 0.00 0.00 92 1012.2
20191020205104 10 189 3.2 9.7 0.00 0.00 0.00 92 1012.1
20191020204604 9 173 1.6 9.7 0.00 0.00 0.00 92 1012.2
20191020204105 9 172 3.2 9.7 0.00 0.00 0.00 92 1012.3
20191020203604 9 174 3.2 11.3 0.00 0.00 0.00 92 1012.3
20191020203105 9 203 3.2 8.0 0.00 0.00 0.00 92 1012.3
20191020202605 9 204 3.2 9.7 0.00 0.00 0.00 92 1012.3
20191020202104 9 194 3.2 4.8 0.00 0.00 0.00 92 1012.2
20191020201605 9 194 1.6 3.2 0.00 0.00 0.00 91 1012.1
20191020201104 9 194 1.6 4.8 0.00 0.00 0.00 91 1012.1
20191020200604 10 194 1.6 8.0 0.00 0.00 0.00 90 1012.1
20191020200105 10 194 1.6 8.0 0.00 0.00 0.00 90 1012.0
20191020195605 10 211 3.2 9.7 0.00 0.00 0.00 90 1012.0
20191020195105 10 203 4.8 11.3 0.00 0.00 0.00 90 1012.1
20191020194605 10 221 4.8 11.3 0.00 0.00 0.00 90 1012.1
20191020194104 10 223 4.8 9.7 0.00 0.00 0.00 90 1012.2
20191020193605 10 196 3.2 8.0 0.00 0.00 0.00 90 1012.1
20191020193104 10 196 3.2 8.0 0.00 0.00 0.00 90 1012.1
20191020192605 10 204 3.2 9.7 0.00 0.00 0.00 90 1012.1
20191020192104 10 206 4.8 9.7 0.00 0.00 0.00 90 1012.1
20191020191605 10 200 3.2 9.7 0.00 0.00 0.00 90 1012.1
20191020191104 10 205 3.2 8.0 0.00 0.00 0.00 89 1012.2
20191020190605 10 205 3.2 8.0 0.00 0.00 0.00 89 1012.2
20191020190106 10 205 3.2 9.7 0.00 0.00 0.00 89 1012.2
20191020185605 10 170 4.8 11.3 0.00 0.00 0.00 90 1012.1
20191020185104 10 185 3.2 9.7 0.00 0.00 0.00 89 1012.0
20191020184605 10 175 3.2 8.0 0.00 0.00 0.00 89 1012.0
20191020184105 10 169 1.6 9.7 0.00 0.00 0.00 89 1012.0
20191020183604 10 168 1.6 9.7 0.00 0.00 0.00 89 1012.0
20191020183104 10 172 1.6 9.7 0.00 0.00 0.00 89 1011.9
20191020182605 9 173 1.6 4.8 0.00 0.00 0.00 89 1011.9
20191020182105 9 174 1.6 8.0 0.00 0.00 0.00 88 1011.9
20191020181605 9 171 0.0 3.2 0.00 0.00 0.00 89 1011.7
20191020181105 9 171 0.0 3.2 0.00 0.00 0.00 88 1011.7
20191020180605 9 171 1.6 3.2 0.00 0.00 0.00 89 1011.8
20191020180105 9 171 1.6 3.2 0.00 0.00 0.00 89 1011.8
20191020175605 9 171 0.0 1.6 0.00 0.00 0.00 88 1011.7
20191020175105 10 171 0.0 0.0 0.00 0.00 0.00 88 1011.6
20191020174604 10 171 0.0 3.2 0.00 0.00 0.00 87 1011.6
20191020174105 10 171 3.2 8.0 0.00 0.00 0.00 87 1011.5
20191020173604 10 171 1.6 8.0 0.00 0.00 0.00 87 1011.6
20191020173105 10 170 1.6 8.0 0.00 0.00 0.00 86 1011.6
20191020172605 10 171 1.6 9.7 0.00 0.00 0.00 86 1011.5
20191020172104 10 168 0.0 9.7 0.00 0.00 0.00 86 1011.5
20191020171605 10 212 1.6 9.7 0.00 0.00 0.00 85 1011.6
20191020171105 10 168 1.6 8.0 0.00 0.00 0.00 85 1011.6
20191020170604 10 211 1.6 11.3 0.00 0.00 0.00 84 1011.5
20191020170105 10 202 4.8 14.5 0.00 0.00 0.00 84 1011.5
20191020165605 10 173 1.6 4.8 0.00 0.00 0.00 83 1011.4
20191020165105 11 173 3.2 9.7 0.00 0.00 0.00 83 1011.4
20191020164605 11 173 3.2 9.7 0.00 0.00 0.00 83 1011.4
20191020164105 11 173 4.8 9.7 0.00 0.00 0.00 82 1011.3
20191020163604 11 173 3.2 9.7 0.00 0.00 0.00 82 1011.2
20191020163104 11 180 4.8 9.7 0.00 0.00 0.00 81 1011.1
20191020162604 11 179 1.6 8.0 0.00 0.00 0.00 80 1011.2
20191020162104 11 166 8.0 14.5 0.00 0.00 0.00 80 1011.2
20191020161605 12 169 8.0 16.1 0.00 0.00 0.00 79 1011.1
20191020161104 12 164 8.0 19.3 0.00 0.00 0.00 79 1011.2
20191020160605 12 164 4.8 27.4 0.00 0.00 0.00 78 1011.2
20191020160105 12 168 8.0 16.1 0.00 0.00 0.00 78 1011.2
20191020155604 12 184 9.7 20.9 0.00 0.00 0.00 78 1011.2
20191020155104 12 192 6.4 11.3 0.00 0.00 0.00 78 1011.2
20191020154604 12 201 4.8 12.9 0.00 0.00 0.00 78 1011.1
20191020154105 12 202 3.2 12.9 0.00 0.00 0.00 78 1011.1
20191020153605 12 178 4.8 12.9 0.00 0.00 0.00 77 1011.1
20191020153105 13 171 4.8 9.7 0.00 0.00 0.00 77 1011.0
20191020152604 13 164 8.0 19.3 0.00 0.00 0.00 76 1011.0
20191020152104 13 165 6.4 11.3 0.00 0.00 0.00 75 1010.9
20191020151605 13 164 3.2 11.3 0.00 0.00 0.00 74 1010.9
20191020151104 13 163 8.0 12.9 0.00 0.00 0.00 73 1011.0
20191020150605 13 169 8.0 14.5 0.00 0.00 0.00 72 1011.0
20191020150106 13 172 9.7 12.9 0.00 0.00 0.00 72 1011.0
20191020145605 14 164 8.0 14.5 0.00 0.00 0.00 71 1011.0
20191020145104 14 155 8.0 14.5 0.00 0.00 0.00 71 1011.0
20191020144604 14 159 9.7 20.9 0.00 0.00 0.00 70 1011.1
20191020144105 14 151 9.7 19.3 0.00 0.00 0.00 71 1011.2
20191020143605 13 173 9.7 16.1 0.00 0.00 0.00 71 1011.2
20191020143105 13 166 9.7 22.5 0.00 0.00 0.00 71 1011.2
20191020142605 13 155 14.5 20.9 0.00 0.00 0.00 71 1011.2
20191020142104 13 155 11.3 16.1 0.00 0.00 0.00 71 1011.1
20191020141604 14 160 9.7 19.3 0.00 0.00 0.00 70 1011.1
20191020141105 14 158 9.7 19.3 0.00 0.00 0.00 70 1011.0
20191020140605 14 142 11.3 20.9 0.00 0.00 0.00 70 1011.1
20191020140106 15 159 12.9 22.5 0.00 0.00 0.00 69 1011.2
20191020135604 15 160 14.5 22.5 0.00 0.00 0.00 69 1011.1
20191020135104 15 153 11.3 20.9 0.00 0.00 0.00 69 1011.1
20191020134604 15 147 11.3 16.1 0.00 0.00 0.00 69 1011.2
20191020134105 15 162 9.7 16.1 0.00 0.00 0.00 68 1011.2
20191020133604 16 140 8.0 12.9 0.00 0.00 0.00 67 1011.2
20191020133105 16 153 6.4 12.9 0.00 0.00 0.00 68 1011.2
20191020132605 16 134 9.7 16.1 0.00 0.00 0.00 68 1011.3
20191020132104 16 142 8.0 14.5 0.00 0.00 0.00 68 1011.4
20191020131605 16 162 12.9 20.9 0.00 0.00 0.00 67 1011.4
20191020131105 16 156 8.0 14.5 0.00 0.00 0.00 68 1011.4
20191020130605 16 162 6.4 14.5 0.00 0.00 0.00 68 1011.4
20191020130105 16 170 8.0 16.1 0.00 0.00 0.00 66 1011.4
20191020125604 17 211 6.4 14.5 0.00 0.00 0.00 67 1011.5
20191020125104 17 193 4.8 16.1 0.00 0.00 0.00 66 1011.5
20191020124605 17 198 8.0 22.5 0.00 0.00 0.00 66 1011.4
20191020124104 17 199 8.0 16.1 0.00 0.00 0.00 66 1011.5
20191020123604 17 177 6.4 14.5 0.00 0.00 0.00 65 1011.4
20191020123104 17 196 3.2 12.9 0.00 0.00 0.00 67 1011.4
20191020122605 16 137 4.8 12.9 0.00 0.00 0.00 68 1011.5
20191020122105 16 188 11.3 16.1 0.00 0.00 0.00 67 1011.5
20191020121604 16 174 8.0 14.5 0.00 0.00 0.00 68 1011.4
20191020121104 16 159 8.0 12.9 0.00 0.00 0.00 70 1011.5
20191020120604 16 152 9.7 12.9 0.00 0.00 0.00 70 1011.5
20191020120105 16 150 8.0 9.7 0.00 0.00 0.00 72 1011.5
20191020115605 16 153 8.0 12.9 0.00 0.00 0.00 73 1011.5
20191020115105 15 152 6.4 9.7 0.00 0.00 0.00 74 1011.5
20191020114605 15 157 6.4 12.9 0.00 0.00 0.00 72 1011.5
20191020114105 15 170 4.8 9.7 0.00 0.00 0.00 72 1011.6
20191020113604 15 156 4.8 9.7 0.00 0.00 0.00 71 1011.7
20191020113106 15 170 4.8 11.3 0.00 0.00 0.00 71 1011.7
20191020112604 15 151 9.7 16.1 0.00 0.00 0.00 71 1011.7
20191020112104 15 156 6.4 11.3 0.00 0.00 0.00 71 1011.6
20191020111605 15 163 9.7 16.1 0.00 0.00 0.00 71 1011.7
20191020111105 15 159 9.7 14.5 0.00 0.00 0.00 70 1011.7
20191020110604 15 156 8.0 16.1 0.00 0.00 0.00 70 1011.7
20191020110106 15 156 4.8 16.1 0.00 0.00 0.00 70 1011.7
20191020105605 15 140 8.0 19.3 0.00 0.00 0.00 69 1011.7
20191020105104 15 138 11.3 19.3 0.00 0.00 0.00 68 1011.8
20191020104605 15 150 9.7 16.1 0.00 0.00 0.00 68 1011.9
20191020104104 15 148 14.5 25.7 0.00 0.03 0.00 66 1011.9
20191020103604 16 163 14.5 29.0 0.00 0.03 0.00 66 1011.9
20191020103104 15 152 14.5 25.7 0.00 0.03 0.00 67 1011.9
20191020102606 15 160 11.3 22.5 0.00 0.03 0.00 70 1011.9
20191020102105 15 156 16.1 22.5 0.00 0.03 0.00 70 1011.8
20191020101604 15 176 8.0 16.1 0.00 0.03 0.00 72 1011.9
20191020101104 14 166 8.0 19.3 0.00 0.03 0.00 71 1011.7
20191020100604 14 159 11.3 25.7 0.00 0.03 0.00 71 1011.8
20191020100106 14 158 9.7 22.5 0.00 0.03 0.00 72 1011.8
20191020095605 14 152 11.3 20.9 0.00 0.03 0.00 73 1011.9
20191020095104 14 169 9.7 22.5 0.00 0.03 0.00 73 1012.1
20191020094605 14 164 14.5 24.1 0.00 0.03 0.00 72 1012.1
20191020094105 15 163 9.7 16.1 0.00 0.03 0.00 73 1012.2
20191020093605 14 171 9.7 20.9 0.00 0.03 0.00 74 1012.2
20191020093105 14 164 9.7 16.1 0.00 0.03 0.00 74 1012.3
20191020092604 14 167 9.7 19.3 0.00 0.03 0.00 74 1012.3
20191020092106 14 177 8.0 22.5 0.00 0.03 0.00 73 1012.2
20191020091606 14 165 11.3 19.3 0.00 0.03 0.00 73 1012.3
20191020091104 14 156 9.7 19.3 0.00 0.03 0.00 73 1012.2
20191020090604 14 155 8.0 19.3 0.00 0.03 0.00 74 1012.2
20191020090105 14 167 9.7 14.5 0.00 0.03 0.00 75 1012.1
20191020085604 14 157 8.0 16.1 0.00 0.03 0.00 75 1012.2
20191020085104 14 167 9.7 14.5 0.00 0.05 0.00 76 1012.1
20191020084605 14 138 4.8 16.1 0.00 0.05 0.00 76 1012.2
20191020084105 14 207 6.4 12.9 0.00 0.05 0.00 78 1012.0
20191020083605 13 159 9.7 20.9 0.00 0.05 0.00 77 1012.0
20191020083105 13 167 4.8 24.1 0.00 0.05 0.00 77 1012.0
20191020082604 13 163 9.7 19.3 0.00 0.05 0.00 77 1012.0
20191020082105 13 167 9.7 19.3 0.00 0.05 0.00 78 1012.0
20191020081604 13 157 8.0 20.9 0.00 0.05 0.00 78 1011.9
20191020081104 13 171 4.8 14.5 0.00 0.05 0.00 78 1012.0
20191020080605 13 158 4.8 12.9 0.00 0.08 0.00 78 1012.0
20191020080105 13 171 4.8 12.9 0.00 0.08 0.00 78 1012.1
20191020075604 12 146 9.7 19.3 0.00 0.08 0.00 79 1012.2
20191020075105 12 170 4.8 12.9 0.00 0.08 0.00 80 1012.2
20191020074605 12 188 6.4 11.3 0.00 0.08 0.00 80 1012.2
20191020074105 12 207 4.8 14.5 0.00 0.08 0.00 81 1012.2
20191020073604 12 210 4.8 11.3 0.00 0.08 0.00 81 1012.1
20191020073104 12 181 4.8 12.9 0.00 0.08 0.00 81 1012.0
20191020072605 12 185 9.7 16.1 0.00 0.08 0.00 81 1012.0
20191020072105 12 202 6.4 20.9 0.00 0.08 0.00 80 1012.0
20191020071605 12 212 8.0 14.5 0.00 0.08 0.00 81 1012.1
20191020071106 12 195 4.8 12.9 0.00 0.08 0.00 81 1012.1
20191020070605 11 192 4.8 11.3 0.00 0.08 0.00 81 1012.0
20191020070105 11 180 3.2 11.3 0.00 0.08 0.00 81 1012.1
20191020065605 11 185 4.8 14.5 0.00 0.08 0.00 80 1012.1
20191020065104 11 214 8.0 11.3 0.00 0.10 0.00 81 1012.1
20191020064604 11 190 3.2 9.7 0.00 0.10 0.00 81 1012.0
20191020064104 11 201 4.8 12.9 0.00 0.10 0.00 82 1012.0
20191020063605 11 222 8.0 14.5 0.00 0.10 0.00 83 1012.1
20191020063105 10 209 6.4 9.7 0.00 0.10 0.00 85 1012.0
20191020062604 10 228 4.8 9.7 0.00 0.10 0.00 85 1012.0
20191020062105 10 222 3.2 9.7 0.00 0.10 0.00 85 1011.9
20191020061605 10 201 1.6 4.8 0.00 0.10 0.00 86 1011.7
20191020061105 10 200 3.2 8.0 0.00 0.13 0.00 86 1011.9
20191020060605 10 205 3.2 8.0 0.00 0.13 0.00 87 1011.9
20191020060106 9 205 3.2 8.0 0.00 0.13 0.00 87 1011.8
20191020055604 9 205 4.8 8.0 0.00 0.13 0.00 87 1011.7
20191020055104 9 205 3.2 8.0 0.00 0.13 0.00 88 1011.6
20191020054604 9 205 3.2 8.0 0.00 0.13 0.00 88 1011.6
20191020054104 9 205 1.6 8.0 0.00 0.13 0.00 88 1011.5
20191020053604 9 199 3.2 4.8 0.00 0.15 0.00 88 1011.5
20191020053104 9 197 1.6 4.8 0.00 0.15 0.00 88 1011.4
20191020052604 9 197 1.6 8.0 0.00 0.15 0.00 89 1011.4
20191020052105 9 197 1.6 4.8 0.00 0.15 0.00 89 1011.4
20191020051604 9 197 3.2 8.0 0.00 0.15 0.00 89 1011.4
20191020051104 9 197 0.0 4.8 0.00 0.15 0.00 89 1011.4
20191020050605 9 193 1.6 4.8 0.00 0.15 0.00 89 1011.4
20191020050105 9 194 0.0 8.0 0.00 0.15 0.00 89 1011.4
20191020045605 9 196 3.2 9.7 0.00 0.15 0.00 88 1011.4
20191020045104 9 194 1.6 4.8 0.00 0.15 0.00 88 1011.5
20191020044605 9 204 3.2 9.7 0.00 0.15 0.00 88 1011.6
20191020044104 10 203 0.0 4.8 0.00 0.15 0.00 87 1011.5
20191020043604 10 202 3.2 9.7 0.00 0.15 0.00 87 1011.5
20191020043104 10 211 3.2 9.7 0.00 0.15 0.00 87 1011.6
20191020042604 10 203 3.2 9.7 0.00 0.15 0.00 88 1011.6
20191020042104 10 211 3.2 9.7 0.00 0.15 0.00 88 1011.6
20191020041604 10 215 3.2 11.3 0.00 0.18 0.00 88 1011.6
20191020041105 10 202 4.8 9.7 0.00 0.18 0.00 89 1011.6
20191020040605 10 208 4.8 9.7 0.00 0.18 0.00 89 1011.5
20191020040105 10 220 3.2 9.7 0.00 0.18 0.00 89 1011.5
20191020035604 9 169 1.6 9.7 0.00 0.18 0.00 89 1011.5
20191020035104 9 169 1.6 9.7 0.00 0.18 0.00 89 1011.5